Total_Precipitation_Accumulation
0.02 0.02 0.02 0.02 0.06 0.06 0.05 0.09 0.19 0.17 0.19 0.29 0.23 0.16 0.13 0.13 0.10 0.16 0.11 0.27 0.26 0.22 0.32 0.55 0.28 0.28 0.25 0.27 0.40 0.50 0.40 0.34 0.36 0.18 0.19 0.14 0.13 0.13 0.18 0.20 0.18 0.37 0.28 0.31 0.14 0.02 0.01 0.00 0.00 0.00 0.00 0.00
0.03 0.03 0.03 0.03 0.02 0.04 0.03 0.05 0.07 0.06 0.06 0.07 0.12 0.12 0.13 0.18 0.10 0.10 0.18 0.11 0.14 0.20 0.25 0.40 0.36 0.41 0.35 0.41 0.31 0.29 0.30 0.37 0.27 0.25 0.17 0.08 0.06 0.09 0.09 0.14 0.25 0.37 0.28 0.23 0.13 0.10 0.00 0.00 0.00 0.00 0.00 0.00
0.04 0.02 0.03 0.04 0.08 0.07 0.07 0.08 0.06 0.02 0.10 0.08 0.01 0.02 0.03 0.05 0.17 0.13 0.05 0.11 0.15 0.12 0.25 0.17 0.11 0.24 0.52 0.82 0.40 0.37 0.27 0.20 0.28 0.24 0.23 0.14 0.07 0.12 0.08 0.09 0.13 0.24 0.29 0.28 0.24 0.17 0.07 0.00 0.00 0.00 0.00 0.00
0.01 0.01 0.01 0.01 0.02 0.04 0.04 0.03 0.03 0.02 0.01 0.00 0.00 0.00 0.01 0.04 0.07 0.14 0.08 0.09 0.09 0.29 0.10 0.22 0.09 0.15 0.25 0.24 0.38 0.44 0.46 0.28 0.29 0.19 0.15 0.17 0.14 0.09 0.14 0.14 0.23 0.37 0.30 0.46 0.28 0.19 0.10 0.01 0.01 0.00 0.00 0.00
0.03 0.02 0.02 0.03 0.02 0.01 0.02 0.03 0.03 0.02 0.09 0.02 0.01 0.01 0.00 0.01 0.03 0.03 0.03 0.04 0.04 0.07 0.04 0.04 0.13 0.10 0.23 0.19 0.18 0.15 0.25 0.40 0.37 0.32 0.21 0.14 0.09 0.10 0.14 0.14 0.27 0.25 0.39 0.41 0.27 0.14 0.09 0.03 0.00 0.01 0.00 0.00
0.00 0.01 0.01 0.03 0.03 0.03 0.02 0.02 0.07 0.07 0.12 0.09 0.09 0.14 0.03 0.01 0.01 0.02 0.03 0.03 0.02 0.04 0.05 0.06 0.03 0.08 0.04 0.09 0.17 0.17 0.34 0.27 0.27 0.28 0.28 0.27 0.23 0.12 0.14 0.17 0.21 0.32 0.31 0.44 0.35 0.29 0.15 0.10 0.01 0.00 0.00 0.00
0.00 0.00 0.00 0.00 0.02 0.02 0.02 0.05 0.02 0.14 0.12 0.16 0.13 0.11 0.10 0.06 0.02 0.01 0.02 0.03 0.03 0.06 0.03 0.01 0.04 0.06 0.07 0.08 0.12 0.18 0.12 0.38 0.26 0.31 0.18 0.25 0.20 0.18 0.19 0.24 0.17 0.39 0.30 0.33 0.16 0.21 0.21 0.18 0.07 0.01 0.00 0.00
0.00 0.00 0.00 0.00 0.01 0.02 0.02 0.02 0.03 0.05 0.07 0.17 0.07 0.18 0.11 0.13 0.11 0.07 0.05 0.03 0.05 0.10 0.06 0.08 0.03 0.07 0.10 0.08 0.05 0.04 0.11 0.14 0.13 0.20 0.24 0.27 0.22 0.17 0.14 0.24 0.23 0.20 0.55 0.30 0.17 0.10 0.22 0.21 0.09 0.03 0.01 0.00
0.00 0.00 0.00 0.00 0.00 0.01 0.01 0.02 0.01 0.02 0.02 0.02 0.05 0.07 0.11 0.09 0.13 0.07 0.07 0.04 0.02 0.02 0.03 0.08 0.05 0.08 0.06 0.06 0.06 0.04 0.14 0.12 0.12 0.16 0.31 0.20 0.22 0.24 0.25 0.17 0.19 0.21 0.38 0.36 0.26 0.15 0.09 0.19 0.16 0.07 0.02 0.00
0.00 0.00 0.00 0.00 0.00 0.00 0.01 0.02 0.01 0.03 0.02 0.02 0.02 0.03 0.03 0.18 0.06 0.09 0.06 0.07 0.03 0.01 0.01 0.02 0.06 0.03 0.09 0.09 0.09 0.24 0.10 0.09 0.11 0.19 0.21 0.30 0.29 0.29 0.21 0.24 0.19 0.19 0.20 0.26 0.32 0.26 0.14 0.11 0.11 0.13 0.03 0.00
0.00 0.00 0.00 0.00 0.00 0.00 0.00 0.01 0.01 0.01 0.02 0.03 0.04 0.18 0.14 0.05 0.14 0.26 0.09 0.11 0.16 0.11 0.08 0.04 0.05 0.05 0.08 0.06 0.04 0.06 0.11 0.05 0.15 0.09 0.09 0.09 0.11 0.23 0.27 0.24 0.21 0.27 0.25 0.20 0.17 0.23 0.26 0.16 0.11 0.09 0.10 0.02
0.00 0.00 0.00 0.00 0.00 0.00 0.00 0.01 0.01 0.00 0.02 0.02 0.04 0.06 0.09 0.08 0.06 0.09 0.06 0.18 0.10 0.11 0.26 0.11 0.20 0.12 0.05 0.01 0.06 0.04 0.08 0.05 0.03 0.11 0.10 0.08 0.05 0.08 0.17 0.25 0.27 0.29 0.27 0.31 0.24 0.17 0.19 0.23 0.13 0.06 0.09 0.08
0.00 0.00 0.00 0.00 0.00 0.00 0.00 0.00 0.00 0.01 0.01 0.03 0.05 0.03 0.05 0.07 0.09 0.15 0.17 0.12 0.06 0.20 0.14 0.05 0.05 0.11 0.09 0.04 0.11 0.19 0.03 0.02 0.01 0.04 0.07 0.04 0.04 0.08 0.11 0.14 0.23 0.29 0.29 0.33 0.37 0.28 0.22 0.18 0.16 0.08 0.05 0.05
0.00 0.00 0.00 0.00 0.00 0.00 0.00 0.00 0.00 0.00 0.00 0.00 0.01 0.04 0.20 0.09 0.17 0.08 0.23 0.23 0.18 0.18 0.31 0.11 0.16 0.21 0.17 0.16 0.10 0.05 0.04 0.04 0.03 0.05 0.05 0.05 0.02 0.05 0.05 0.05 0.09 0.20 0.28 0.27 0.32 0.35 0.30 0.22 0.17 0.16 0.11 0.04
0.00 0.00 0.00 0.00 0.00 0.00 0.00 0.00 0.00 0.00 0.00 0.00 0.00 0.00 0.02 0.08 0.15 0.21 0.16 0.28 0.14 0.20 0.09 0.13 0.08 0.09 0.14 0.21 0.06 0.29 0.05 0.11 0.08 0.05 0.04 0.04 0.04 0.10 0.02 0.02 0.08 0.07 0.09 0.19 0.26 0.31 0.30 0.29 0.21 0.13 0.22 0.16
0.00 0.00 0.00 0.00 0.00 0.00 0.00 0.00 0.00 0.00 0.00 0.00 0.00 0.00 0.00 0.00 0.04 0.05 0.20 0.29 0.18 0.23 0.24 0.26 0.19 0.15 0.13 0.10 0.14 0.11 0.08 0.06 0.03 0.08 0.20 0.17 0.06 0.08 0.04 0.03 0.02 0.06 0.06 0.06 0.12 0.24 0.27 0.28 0.25 0.19 0.17 0.14
0.00 0.00 0.00 0.00 0.00 0.00 0.00 0.00 0.00 0.00 0.00 0.00 0.00 0.00 0.00 0.00 0.00 0.00 0.01 0.03 0.18 0.20 0.22 0.22 0.27 0.25 0.16 0.14 0.20 0.22 0.15 0.22 0.24 0.18 0.06 0.06 0.07 0.13 0.09 0.14 0.06 0.08 0.06 0.05 0.06 0.06 0.14 0.29 0.26 0.22 0.17 0.11
0.00 0.00 0.00 0.00 0.00 0.00 0.00 0.00 0.00 0.00 0.00 0.00 0.00 0.00 0.00 0.00 0.00 0.00 0.00 0.00 0.02 0.08 0.15 0.27 0.22 0.27 0.21 0.18 0.24 0.22 0.12 0.20 0.21 0.24 0.18 0.22 0.11 0.12 0.16 0.12 0.09 0.07 0.07 0.05 0.05 0.07 0.07 0.07 0.22 0.19 0.15 0.15
0.00 0.00 0.00 0.00 0.00 0.00 0.00 0.00 0.00 0.00 0.00 0.00 0.00 0.00 0.00 0.00 0.00 0.00 0.00 0.00 0.00 0.01 0.03 0.08 0.18 0.18 0.24 0.22 0.17 0.17 0.18 0.19 0.16 0.33 0.24 0.37 0.16 0.15 0.13 0.10 0.09 0.12 0.14 0.12 0.07 0.05 0.05 0.06 0.10 0.15 0.18 0.12
0.00 0.00 0.00 0.00 0.00 0.00 0.00 0.00 0.00 0.00 0.00 0.00 0.00 0.00 0.00 0.00 0.00 0.00 0.00 0.00 0.00 0.00 0.01 0.01 0.07 0.08 0.14 0.25 0.18 0.22 0.22 0.25 0.20 0.17 0.28 0.24 0.22 0.22 0.18 0.17 0.14 0.12 0.10 0.09 0.11 0.09 0.05 0.04 0.05 0.08 0.11 0.12
0.00 0.00 0.00 0.00 0.00 0.00 0.00 0.00 0.00 0.00 0.00 0.00 0.00 0.00 0.00 0.00 0.00 0.00 0.00 0.00 0.00 0.00 0.00 0.01 0.01 0.03 0.05 0.09 0.17 0.21 0.19 0.13 0.21 0.18 0.20 0.24 0.33 0.23 0.29 0.24 0.18 0.13 0.11 0.10 0.08 0.08 0.11 0.09 0.07 0.04 0.06 0.10
0.00 0.00 0.00 0.00 0.00 0.00 0.00 0.00 0.00 0.00 0.00 0.00 0.00 0.00 0.00 0.00 0.00 0.00 0.00 0.00 0.00 0.00 0.00 0.00 0.00 0.00 0.02 0.05 0.10 0.14 0.17 0.16 0.12 0.14 0.17 0.19 0.23 0.25 0.20 0.24 0.23 0.24 0.16 0.11 0.09 0.08 0.06 0.06 0.08 0.09 0.05 0.05
0.00 0.00 0.00 0.00 0.00 0.00 0.00 0.00 0.00 0.00 0.00 0.00 0.00 0.00 0.00 0.00 0.00 0.00 0.00 0.00 0.00 0.00 0.00 0.00 0.00 0.00 0.00 0.02 0.07 0.11 0.13 0.16 0.16 0.12 0.10 0.13 0.13 0.19 0.26 0.23 0.18 0.17 0.16 0.16 0.16 0.11 0.08 0.06 0.05 0.05 0.07 0.07
0.00 0.00 0.00 0.00 0.00 0.00 0.00 0.00 0.00 0.01 0.00 0.00 0.00 0.00 0.00 0.00 0.00 0.00 0.00 0.00 0.00 0.00 0.00 0.00 0.00 0.00 0.00 0.01 0.04 0.09 0.13 0.13 0.15 0.17 0.16 0.12 0.10 0.12 0.16 0.23 0.23 0.21 0.22 0.21 0.20 0.19 0.15 0.12 0.08 0.07 0.05 0.05
0.01 0.01 0.01 0.00 0.00 0.00 0.00 0.01 0.01 0.00 0.01 0.01 0.00 0.00 0.01 0.01 0.00 0.00 0.00 0.00 0.00 0.00 0.00 0.00 0.00 0.00 0.01 0.01 0.02 0.07 0.11 0.14 0.16 0.17 0.18 0.18 0.17 0.17 0.15 0.15 0.17 0.21 0.24 0.27 0.30 0.28 0.24 0.19 0.15 0.13 0.10 0.08
0.03 0.04 0.08 0.04 0.06 0.06 0.04 0.03 0.02 0.01 0.00 0.02 0.01 0.02 0.01 0.01 0.01 0.02 0.02 0.01 0.02 0.03 0.01 0.01 0.01 0.02 0.02 0.19 0.01 0.03 0.07 0.10 0.14 0.18 0.21 0.22 0.24 0.23 0.21 0.18 0.13 0.15 0.25 0.50 0.39 0.30 0.25 0.19 0.17 0.17 0.15 0.14
0.00 0.00 0.01 0.03 0.08 0.14 0.12 0.23 0.16 0.11 0.11 0.06 0.06 0.03 0.02 0.02 0.02 0.02 0.03 0.03 0.06 0.07 0.05 0.11 0.08 0.07 0.09 0.06 0.03 0.03 0.05 0.08 0.11 0.13 0.16 0.19 0.21 0.23 0.21 0.19 0.16 0.22 0.23 0.30 0.31 0.25 0.24 0.23 0.18 0.15 0.15 0.14
0.00 0.00 0.01 0.00 0.00 0.00 0.01 0.03 0.06 0.13 0.08 0.15 0.13 0.07 0.07 0.08 0.15 0.13 0.07 0.06 0.03 0.04 0.05 0.04 0.10 0.09 0.04 0.04 0.03 0.05 0.06 0.06 0.08 0.11 0.13 0.15 0.17 0.19 0.19 0.19 0.20 0.16 0.18 0.21 0.25 0.33 0.38 0.41 0.27 0.20 0.12 0.07
0.00 0.00 0.01 0.01 0.00 0.01 0.01 0.01 0.00 0.01 0.02 0.05 0.08 0.07 0.13 0.09 0.07 0.11 0.07 0.03 0.05 0.04 0.11 0.07 0.04 0.07 0.11 0.07 0.05 0.06 0.07 0.06 0.06 0.06 0.10 0.12 0.14 0.16 0.19 0.19 0.14 0.13 0.14 0.15 0.19 0.35 0.32 0.40 0.38 0.32 0.26 0.12
0.00 0.00 0.01 0.00 0.01 0.01 0.00 0.01 0.00 0.01 0.00 0.00 0.00 0.01 0.02 0.03 0.03 0.03 0.03 0.04 0.04 0.03 0.03 0.04 0.07 0.07 0.03 0.04 0.06 0.05 0.05 0.05 0.06 0.08 0.07 0.08 0.11 0.15 0.16 0.17 0.18 0.16 0.11 0.12 0.16 0.24 0.35 0.37 0.28 0.21 0.13 0.11
0.00 0.00 0.00 0.01 0.01 0.01 0.01 0.00 0.00 0.00 0.00 0.00 0.01 0.00 0.00 0.01 0.01 0.02 0.04 0.02 0.02 0.04 0.05 0.05 0.08 0.06 0.06 0.07 0.07 0.06 0.06 0.06 0.06 0.05 0.22 0.24 0.13 0.13 0.14 0.15 0.19 0.18 0.15 0.10 0.12 0.19 0.23 0.22 0.25 0.22 0.15 0.11